Tracking 35275 objects as of 8-Sep-2026
HD Live streaming from Space Station
objects crossing your sky now

SL-12 PLAT


SL-12 PLAT is no longer on orbit


NORAD ID: 9505
Int'l Code: 1976-107C
Launch date: October 26, 1976
Source: Commonwealth of Independent States (former USSR) (CIS)
Launch site: TYURATAM MISSILE AND SPACE COMPLEX (TTMTR)
Decay date: 1976-10-27
Your satellite tracking list
Your tracking list is empty




NASA's NSSDC Master Catalog

Two Line Element Set (TLE):
1 09505U 76107  C 76300.97821884  .07742492 +00000-0 +00000-0 0  9998
2 09505 051.4706 264.5915 0001918 015.8451 344.2588 16.33160400000063
Source of the keplerian elements: AFSPC